SL-14 DEB, 45292

Orbit data source: Space-Track

SL-14 DEB, 45292 is space debris in LEO originally from a launch on Thu, 15 Aug 1991 UTC launched from the Plesetsk Missile And Space Complex (PKMTR). Debris objects in space refer to the collection of defunct objects orbiting the Earth. Examples of debris include non-operational satellites, rocket bodies, and fragments generated from explosions, collisions, or faulty payload assembly.

Loading next visibility...
Identifier
45292, 1991-056AE
Orbit
LEO
Country
Flag of CISCIS
Related business
Manufacturer
Unknown
Mission
Spacecraft
Bus & Motor
Unknown
Mass
Unknown
Launch date (UTC)
1991-08-15 (34 years ago)
Launch vehicle
Unknown
Launch site
Plesetsk Missile And Space Complex (PKMTR)
Object type
Payload
Rocket body
Debris
Shape & HBR
Unknown
Radar Cross Section
Small (<0.1 m²)

Expand to show TLE details & history
Last TLE update: 1 day ago

TLE from 1 day ago
0 SL-14 DEB
1 45292U 91056AE  25241.98268184  .00005434  00000-0  96079-2 0  9992
2 45292  82.6199 326.0019 0108920 212.6217 146.8160 13.40119367268503
Epoch: 2025-08-29T23:35Z
TLE epoch observation values (Epoch: 2025-08-29T23:35:03.71Z)
Latitude
-0.00004°
Longitude
-6.18708°
Altitude
1,180.201 km
Speed
7.23 km/s
True Right ascension
21h 44m 00s
True Declination
0° 00' 00"
Sunlit
Object was in full shadow at epoch
Visualization orbit readout
Latitude
Unknown
Longitude
Unknown
Altitude
Unknown
Speed
Unknown
Apparent Right ascension
Unknown
Apparent Declination
Unknown
Sunlit
N/A
Visualization observer readout
Local Sidereal Time
15:55:35
Azimuth
Unknown
Elevation
Unknown
Doppler factor
Unknown
Orbital elements
Apogee altitude
1,187.562 km
Perigee altitude
1,024.526 km
Semi-major axis
7,484.181 km
Eccentricity
0.01089
Inclination
82.6199°
RAAN
326.0019°
Arg. of periapsis
212.6217°
True anomaly
147.49142°
Mean anomaly
146.816°
Eccentric anomaly
147.15448°
Mean motion
3.35218 °/min
Orbital period
107.39 mins
BSTAR
0.0096079
Loading maneuver chart data...
Computing Atmospheric mass density...
Loading historical data...
Loading historical data...
Loading historical data...
Loading historical data...
Loading historical data...
Loading historical data...
Loading historical data...

Documentation

Showing up to 5 results
|